Year,Month,Day,Hour,Minute,Value (Times are PST for temperature in C)
2009,02,03,00,00,2.20
2009,02,03,00,01,2.20
2009,02,03,00,02,2.20
2009,02,03,00,03,2.20
2009,02,03,00,04,2.20
2009,02,03,00,05,2.20
2009,02,03,00,06,2.20
2009,02,03,00,07,2.20
2009,02,03,00,08,2.20
2009,02,03,00,09,2.20
2009,02,03,00,10,2.20
2009,02,03,00,11,2.20
2009,02,03,00,12,2.20
2009,02,03,00,13,2.20
2009,02,03,00,14,2.10
2009,02,03,00,15,2.10
2009,02,03,00,16,2.10
2009,02,03,00,17,2.10
2009,02,03,00,18,2.10
2009,02,03,00,19,2.10
2009,02,03,00,20,2.20
2009,02,03,00,21,2.20
2009,02,03,00,22,2.20
2009,02,03,00,23,2.20
2009,02,03,00,24,2.20
2009,02,03,00,25,2.20
2009,02,03,00,26,2.20
2009,02,03,00,27,2.20
2009,02,03,00,28,2.20
2009,02,03,00,29,2.20
2009,02,03,00,30,2.20
2009,02,03,00,31,2.20
2009,02,03,00,32,2.20
2009,02,03,00,33,2.20
2009,02,03,00,34,2.20
2009,02,03,00,35,2.20
2009,02,03,00,36,2.20
2009,02,03,00,37,2.20
2009,02,03,00,38,2.20
2009,02,03,00,39,2.20
2009,02,03,00,40,2.20
2009,02,03,00,41,2.20
2009,02,03,00,42,2.20
2009,02,03,00,43,2.20
2009,02,03,00,44,2.20
2009,02,03,00,45,2.20
2009,02,03,00,46,2.20
2009,02,03,00,47,2.20
2009,02,03,00,48,2.20
2009,02,03,00,49,2.20
2009,02,03,00,50,2.20
2009,02,03,00,51,2.20
2009,02,03,00,52,2.20
2009,02,03,00,53,2.20
2009,02,03,00,54,2.20
2009,02,03,00,55,2.20
2009,02,03,00,56,2.20
2009,02,03,00,57,2.20
2009,02,03,00,58,2.20
2009,02,03,00,59,2.20
2009,02,03,01,00,2.20
2009,02,03,01,01,2.20
2009,02,03,01,02,2.20
2009,02,03,01,03,2.20
2009,02,03,01,04,2.20
2009,02,03,01,05,2.30
2009,02,03,01,06,2.30
2009,02,03,01,07,2.30
2009,02,03,01,08,2.30
2009,02,03,01,09,2.30
2009,02,03,01,10,2.30
2009,02,03,01,11,2.30
2009,02,03,01,12,2.30
2009,02,03,01,13,2.30
2009,02,03,01,14,2.30
2009,02,03,01,15,2.30
2009,02,03,01,16,2.30
2009,02,03,01,17,2.30
2009,02,03,01,18,2.30
2009,02,03,01,19,2.30
2009,02,03,01,20,2.30
2009,02,03,01,21,2.30
2009,02,03,01,22,2.30
2009,02,03,01,23,2.30
2009,02,03,01,24,2.30
2009,02,03,01,25,2.30
2009,02,03,01,26,2.30
2009,02,03,01,27,2.30
2009,02,03,01,28,2.30
2009,02,03,01,29,2.30
2009,02,03,01,30,2.30
2009,02,03,01,31,2.30
2009,02,03,01,32,2.20
2009,02,03,01,33,2.20
2009,02,03,01,34,2.20
2009,02,03,01,35,2.20
2009,02,03,01,36,2.20
2009,02,03,01,37,2.20
2009,02,03,01,38,2.20
2009,02,03,01,39,2.20
2009,02,03,01,40,2.10
2009,02,03,01,41,2.10
2009,02,03,01,42,2.10
2009,02,03,01,43,2.10
2009,02,03,01,44,2.10
2009,02,03,01,45,2.00
2009,02,03,01,46,2.00
2009,02,03,01,47,2.00
2009,02,03,01,48,2.00
2009,02,03,01,49,2.00
2009,02,03,01,50,2.00
2009,02,03,01,51,2.00
2009,02,03,01,52,1.90
2009,02,03,01,53,1.90
2009,02,03,01,54,1.90
2009,02,03,01,55,1.90
2009,02,03,01,56,1.90
2009,02,03,01,57,1.80
2009,02,03,01,58,1.80
2009,02,03,01,59,1.80
2009,02,03,02,00,1.80
2009,02,03,02,01,1.80
2009,02,03,02,02,1.80
2009,02,03,02,03,1.80
2009,02,03,02,04,1.80
2009,02,03,02,05,1.80
2009,02,03,02,06,1.80
2009,02,03,02,07,1.80
2009,02,03,02,08,1.80
2009,02,03,02,09,1.80
2009,02,03,02,10,1.80
2009,02,03,02,11,1.80
2009,02,03,02,12,1.80
2009,02,03,02,13,1.80
2009,02,03,02,14,1.80
2009,02,03,02,15,1.80
2009,02,03,02,16,1.80
2009,02,03,02,17,1.80
2009,02,03,02,18,1.80
2009,02,03,02,19,1.70
2009,02,03,02,20,1.70
2009,02,03,02,21,1.70
2009,02,03,02,22,1.70
2009,02,03,02,23,1.70
2009,02,03,02,24,1.70
2009,02,03,02,25,1.70
2009,02,03,02,26,1.70
2009,02,03,02,27,1.70
2009,02,03,02,28,1.80
2009,02,03,02,29,1.80
2009,02,03,02,30,1.80
2009,02,03,02,31,1.80
2009,02,03,02,32,1.80
2009,02,03,02,33,1.80
2009,02,03,02,34,1.80
2009,02,03,02,35,1.80
2009,02,03,02,36,1.80
2009,02,03,02,37,1.80
2009,02,03,02,38,1.80
2009,02,03,02,39,1.80
2009,02,03,02,40,1.70
2009,02,03,02,41,1.70
2009,02,03,02,42,1.70
2009,02,03,02,43,1.70
2009,02,03,02,44,1.70
2009,02,03,02,45,1.70
2009,02,03,02,46,1.70
2009,02,03,02,47,1.70
2009,02,03,02,48,1.70
2009,02,03,02,49,1.70
2009,02,03,02,50,1.70
2009,02,03,02,51,1.70
2009,02,03,02,52,1.70
2009,02,03,02,53,1.70
2009,02,03,02,54,1.70
2009,02,03,02,55,1.70
2009,02,03,02,56,1.70
2009,02,03,02,57,1.70
2009,02,03,02,58,1.70
2009,02,03,02,59,1.70
2009,02,03,03,00,1.70
2009,02,03,03,01,1.70
2009,02,03,03,02,1.70
2009,02,03,03,03,1.70
2009,02,03,03,04,1.70
2009,02,03,03,05,1.70
2009,02,03,03,06,1.70
2009,02,03,03,07,1.70
2009,02,03,03,08,1.70
2009,02,03,03,09,1.80
2009,02,03,03,10,1.80
2009,02,03,03,11,1.80
2009,02,03,03,12,1.80
2009,02,03,03,13,1.80
2009,02,03,03,14,1.80
2009,02,03,03,15,1.80
2009,02,03,03,16,1.80
2009,02,03,03,17,1.80
2009,02,03,03,18,1.80
2009,02,03,03,19,1.80
2009,02,03,03,20,1.80
2009,02,03,03,21,1.80
2009,02,03,03,22,1.80
2009,02,03,03,23,1.70
2009,02,03,03,24,1.70
2009,02,03,03,25,1.70
2009,02,03,03,26,1.70
2009,02,03,03,27,1.70
2009,02,03,03,28,1.70
2009,02,03,03,29,1.70
2009,02,03,03,30,1.70
2009,02,03,03,31,1.70
2009,02,03,03,32,1.60
2009,02,03,03,33,1.60
2009,02,03,03,34,1.60
2009,02,03,03,35,1.60
2009,02,03,03,36,1.60
2009,02,03,03,37,1.60
2009,02,03,03,38,1.60
2009,02,03,03,39,1.60
2009,02,03,03,40,1.60
2009,02,03,03,41,1.60
2009,02,03,03,42,1.60
2009,02,03,03,43,1.60
2009,02,03,03,44,1.60
2009,02,03,03,45,1.60
2009,02,03,03,46,1.60
2009,02,03,03,47,1.60
2009,02,03,03,48,1.60
2009,02,03,03,49,1.60
2009,02,03,03,50,1.60
2009,02,03,03,51,1.60
2009,02,03,03,52,1.70
2009,02,03,03,53,1.70
2009,02,03,03,54,1.70
2009,02,03,03,55,1.70
2009,02,03,03,56,1.70
2009,02,03,03,57,1.70
2009,02,03,03,58,1.70
2009,02,03,03,59,1.70
2009,02,03,04,00,1.70
2009,02,03,04,01,1.70
2009,02,03,04,02,1.70
2009,02,03,04,03,1.70
2009,02,03,04,04,1.70
2009,02,03,04,05,1.70
2009,02,03,04,06,1.70
2009,02,03,04,07,1.70
2009,02,03,04,08,1.70
2009,02,03,04,09,1.70
2009,02,03,04,10,1.70
2009,02,03,04,11,1.70
2009,02,03,04,12,1.70
2009,02,03,04,13,1.70
2009,02,03,04,14,1.70
2009,02,03,04,15,1.70
2009,02,03,04,16,1.70
2009,02,03,04,17,1.80
2009,02,03,04,18,1.80
2009,02,03,04,19,1.80
2009,02,03,04,20,1.80
2009,02,03,04,21,1.70
2009,02,03,04,22,1.70
2009,02,03,04,23,1.70
2009,02,03,04,24,1.70
2009,02,03,04,25,1.70
2009,02,03,04,26,1.70
2009,02,03,04,27,1.70
2009,02,03,04,28,1.70
2009,02,03,04,29,1.70
2009,02,03,04,30,1.70
2009,02,03,04,31,1.70
2009,02,03,04,32,1.60
2009,02,03,04,33,1.60
2009,02,03,04,34,1.60
2009,02,03,04,35,1.60
2009,02,03,04,36,1.60
2009,02,03,04,37,1.60
2009,02,03,04,38,1.60
2009,02,03,04,39,1.60
2009,02,03,04,40,1.60
2009,02,03,04,41,1.60
2009,02,03,04,42,1.50
2009,02,03,04,43,1.50
2009,02,03,04,44,1.50
2009,02,03,04,45,1.50
2009,02,03,04,46,1.40
2009,02,03,04,47,1.40
2009,02,03,04,48,1.40
2009,02,03,04,49,1.30
2009,02,03,04,50,1.30
2009,02,03,04,51,1.30
2009,02,03,04,52,1.30
2009,02,03,04,53,1.30
2009,02,03,04,54,1.30
2009,02,03,04,55,1.30
2009,02,03,04,56,1.30
2009,02,03,04,57,1.30
2009,02,03,04,58,1.30
2009,02,03,04,59,1.30
2009,02,03,05,00,1.30
2009,02,03,05,01,1.20
2009,02,03,05,02,1.20
2009,02,03,05,03,1.20
2009,02,03,05,04,1.20
2009,02,03,05,05,1.20
2009,02,03,05,06,1.20
2009,02,03,05,07,1.20
2009,02,03,05,08,1.30
2009,02,03,05,09,1.30
2009,02,03,05,10,1.30
2009,02,03,05,11,1.30
2009,02,03,05,12,1.30
2009,02,03,05,13,1.30
2009,02,03,05,14,1.30
2009,02,03,05,15,1.30
2009,02,03,05,16,1.30
2009,02,03,05,17,1.30
2009,02,03,05,18,1.30
2009,02,03,05,19,1.30
2009,02,03,05,20,1.30
2009,02,03,05,21,1.30
2009,02,03,05,22,1.30
2009,02,03,05,23,1.30
2009,02,03,05,24,1.30
2009,02,03,05,25,1.30
2009,02,03,05,26,1.30
2009,02,03,05,27,1.30
2009,02,03,05,28,1.30
2009,02,03,05,29,1.30
2009,02,03,05,30,1.30
2009,02,03,05,31,1.30
2009,02,03,05,32,1.30
2009,02,03,05,33,1.30
2009,02,03,05,34,1.30
2009,02,03,05,35,1.30
2009,02,03,05,36,1.30
2009,02,03,05,37,1.30
2009,02,03,05,38,1.30
2009,02,03,05,39,1.30
2009,02,03,05,40,1.40
2009,02,03,05,41,1.40
2009,02,03,05,42,1.40
2009,02,03,05,43,1.40
2009,02,03,05,44,1.40
2009,02,03,05,45,1.40
2009,02,03,05,46,1.40
2009,02,03,05,47,1.40
2009,02,03,05,48,1.50
2009,02,03,05,49,1.50
2009,02,03,05,50,1.50
2009,02,03,05,51,1.50
2009,02,03,05,52,1.50
2009,02,03,05,53,1.50
2009,02,03,05,54,1.50
2009,02,03,05,55,1.50
2009,02,03,05,56,1.50
2009,02,03,05,57,1.50
2009,02,03,05,58,1.50
2009,02,03,05,59,1.50
2009,02,03,06,00,1.50
2009,02,03,06,01,1.50
2009,02,03,06,02,1.50
2009,02,03,06,03,1.50
2009,02,03,06,04,1.50
2009,02,03,06,05,1.50
2009,02,03,06,06,1.50
2009,02,03,06,07,1.50
2009,02,03,06,08,1.50
2009,02,03,06,09,1.50
2009,02,03,06,10,1.50
2009,02,03,06,11,1.50
2009,02,03,06,12,1.50
2009,02,03,06,13,1.50
2009,02,03,06,14,1.50
2009,02,03,06,15,1.50
2009,02,03,06,16,1.50
2009,02,03,06,17,1.50
2009,02,03,06,18,1.50
2009,02,03,06,19,1.50
2009,02,03,06,20,1.50
2009,02,03,06,21,1.50
2009,02,03,06,22,1.60
2009,02,03,06,23,1.60
2009,02,03,06,24,1.60
2009,02,03,06,25,1.60
2009,02,03,06,26,1.60
2009,02,03,06,27,1.60
2009,02,03,06,28,1.50
2009,02,03,06,29,1.50
2009,02,03,06,30,1.50
2009,02,03,06,31,1.50
2009,02,03,06,32,1.50
2009,02,03,06,33,1.50
2009,02,03,06,34,1.50
2009,02,03,06,35,1.50
2009,02,03,06,36,1.60
2009,02,03,06,37,1.60
2009,02,03,06,38,1.60
2009,02,03,06,39,1.60
2009,02,03,06,40,1.60
2009,02,03,06,41,1.70
2009,02,03,06,42,1.70
2009,02,03,06,43,1.80
2009,02,03,06,44,1.80
2009,02,03,06,45,1.80
2009,02,03,06,46,1.80
2009,02,03,06,47,1.80
2009,02,03,06,48,1.90
2009,02,03,06,49,1.90
2009,02,03,06,50,1.90
2009,02,03,06,51,1.90
2009,02,03,06,52,2.00
2009,02,03,06,53,2.00
2009,02,03,06,54,2.00
2009,02,03,06,55,2.00
2009,02,03,06,56,2.00
2009,02,03,06,57,2.00
2009,02,03,06,58,2.00
2009,02,03,06,59,2.00
2009,02,03,07,00,1.90
2009,02,03,07,01,1.90
2009,02,03,07,02,1.90
2009,02,03,07,03,1.90
2009,02,03,07,04,1.90
2009,02,03,07,05,1.80
2009,02,03,07,06,1.80
2009,02,03,07,07,1.80
2009,02,03,07,08,1.80
2009,02,03,07,09,1.80
2009,02,03,07,10,1.80
2009,02,03,07,11,1.80
2009,02,03,07,12,1.80
2009,02,03,07,13,1.80
2009,02,03,07,14,1.80
2009,02,03,07,15,1.70
2009,02,03,07,16,1.70
2009,02,03,07,17,1.70
2009,02,03,07,18,1.70
2009,02,03,07,19,1.60
2009,02,03,07,20,1.60
2009,02,03,07,21,1.60
2009,02,03,07,22,1.60
2009,02,03,07,23,1.60
2009,02,03,07,24,1.60
2009,02,03,07,25,1.60
2009,02,03,07,26,1.60
2009,02,03,07,27,1.60
2009,02,03,07,28,1.60
2009,02,03,07,29,1.60
2009,02,03,07,30,1.60
2009,02,03,07,31,1.60
2009,02,03,07,32,1.60
2009,02,03,07,33,1.60
2009,02,03,07,34,1.60
2009,02,03,07,35,1.70
2009,02,03,07,36,1.70
2009,02,03,07,37,1.70
2009,02,03,07,38,1.70
2009,02,03,07,39,1.70
2009,02,03,07,40,1.70
2009,02,03,07,41,1.70
2009,02,03,07,42,1.70
2009,02,03,07,43,1.70
2009,02,03,07,44,1.70
2009,02,03,07,45,1.70
2009,02,03,07,46,1.70
2009,02,03,07,47,1.70
2009,02,03,07,48,1.80
2009,02,03,07,49,1.80
2009,02,03,07,50,1.80
2009,02,03,07,51,1.80
2009,02,03,07,52,1.80
2009,02,03,07,53,1.80
2009,02,03,07,54,1.80
2009,02,03,07,55,1.80
2009,02,03,07,56,1.80
2009,02,03,07,57,1.80
2009,02,03,07,58,1.80
2009,02,03,07,59,1.80
2009,02,03,08,00,1.80
2009,02,03,08,01,1.80
2009,02,03,08,02,1.90
2009,02,03,08,03,1.90
2009,02,03,08,04,1.90
2009,02,03,08,05,1.90
2009,02,03,08,06,1.90
2009,02,03,08,07,1.90
2009,02,03,08,08,1.90
2009,02,03,08,09,1.90
2009,02,03,08,10,1.90
2009,02,03,08,11,1.90
2009,02,03,08,12,1.90
2009,02,03,08,13,1.90
2009,02,03,08,14,1.90
2009,02,03,08,15,1.90
2009,02,03,08,16,1.90
2009,02,03,08,17,1.90
2009,02,03,08,18,1.90
2009,02,03,08,19,2.00
2009,02,03,08,20,2.00
2009,02,03,08,21,2.00
2009,02,03,08,22,2.00
2009,02,03,08,23,2.00
2009,02,03,08,24,2.00
2009,02,03,08,25,2.10
2009,02,03,08,26,2.10
2009,02,03,08,27,2.10
2009,02,03,08,28,2.10
2009,02,03,08,29,2.10
2009,02,03,08,30,2.20
2009,02,03,08,31,2.20
2009,02,03,08,32,2.20
2009,02,03,08,33,2.20
2009,02,03,08,34,2.20
2009,02,03,08,35,2.20
2009,02,03,08,36,2.20
2009,02,03,08,37,2.20
2009,02,03,08,38,2.20
2009,02,03,08,39,2.20
2009,02,03,08,40,2.20
2009,02,03,08,41,2.20
2009,02,03,08,42,2.20
2009,02,03,08,43,2.20
2009,02,03,08,44,2.20
2009,02,03,08,45,2.30
2009,02,03,08,46,2.30
2009,02,03,08,47,2.30
2009,02,03,08,48,2.30
2009,02,03,08,49,2.30
2009,02,03,08,50,2.40
2009,02,03,08,51,2.40
2009,02,03,08,52,2.40
2009,02,03,08,53,2.40
2009,02,03,08,54,2.50
2009,02,03,08,55,2.50
2009,02,03,08,56,2.50
2009,02,03,08,57,2.50
2009,02,03,08,58,2.50
2009,02,03,08,59,2.50
2009,02,03,09,00,2.50
2009,02,03,09,01,2.40
2009,02,03,09,02,2.40
2009,02,03,09,03,2.40
2009,02,03,09,04,2.40
2009,02,03,09,05,2.40
2009,02,03,09,06,2.50
2009,02,03,09,07,2.50
2009,02,03,09,08,2.50
2009,02,03,09,09,2.50
2009,02,03,09,10,2.50
2009,02,03,09,11,2.50
2009,02,03,09,12,2.50
2009,02,03,09,13,2.50
2009,02,03,09,14,2.50
2009,02,03,09,15,2.60
2009,02,03,09,16,2.60
2009,02,03,09,17,2.60
2009,02,03,09,18,2.60
2009,02,03,09,19,2.70
2009,02,03,09,20,2.70
2009,02,03,09,21,2.70
2009,02,03,09,22,2.70
2009,02,03,09,23,2.80
2009,02,03,09,24,2.80
2009,02,03,09,25,2.90
2009,02,03,09,26,2.90
2009,02,03,09,27,2.90
2009,02,03,09,28,2.90
2009,02,03,09,29,2.90
2009,02,03,09,30,2.90
2009,02,03,09,31,2.90
2009,02,03,09,32,3.00
2009,02,03,09,33,3.10
2009,02,03,09,34,3.10
2009,02,03,09,35,3.10
2009,02,03,09,36,3.10
2009,02,03,09,37,3.10
2009,02,03,09,38,3.10
2009,02,03,09,39,3.10
2009,02,03,09,40,3.10
2009,02,03,09,41,3.10
2009,02,03,09,42,3.20
2009,02,03,09,43,3.20
2009,02,03,09,44,3.30
2009,02,03,09,45,3.30
2009,02,03,09,46,3.30
2009,02,03,09,47,3.30
2009,02,03,09,48,3.40
2009,02,03,09,49,3.40
2009,02,03,09,50,3.40
2009,02,03,09,51,3.50
2009,02,03,09,52,3.50
2009,02,03,09,53,3.50
2009,02,03,09,54,3.50
2009,02,03,09,55,3.60
2009,02,03,09,56,3.60
2009,02,03,09,57,3.60
2009,02,03,09,58,3.70
2009,02,03,09,59,3.70
2009,02,03,10,00,3.80
2009,02,03,10,01,3.80
2009,02,03,10,02,3.80
2009,02,03,10,03,3.80
2009,02,03,10,04,3.80
2009,02,03,10,05,3.80
2009,02,03,10,06,3.90
2009,02,03,10,07,3.90
2009,02,03,10,08,4.00
2009,02,03,10,09,4.00
2009,02,03,10,10,4.00
2009,02,03,10,11,4.00
2009,02,03,10,12,4.10
2009,02,03,10,13,4.10
2009,02,03,10,14,4.20
2009,02,03,10,15,4.20
2009,02,03,10,16,4.20
2009,02,03,10,17,4.20
2009,02,03,10,18,4.20
2009,02,03,10,19,4.20
2009,02,03,10,20,4.20
2009,02,03,10,21,4.20
2009,02,03,10,22,4.20
2009,02,03,10,23,4.30
2009,02,03,10,24,4.30
2009,02,03,10,25,4.30
2009,02,03,10,26,4.40
2009,02,03,10,27,4.40
2009,02,03,10,28,4.40
2009,02,03,10,29,4.50
2009,02,03,10,30,4.50
2009,02,03,10,31,4.50
2009,02,03,10,32,4.60
2009,02,03,10,33,4.60
2009,02,03,10,34,4.60
2009,02,03,10,35,4.60
2009,02,03,10,36,4.60
2009,02,03,10,37,4.60
2009,02,03,10,38,4.60
2009,02,03,10,39,4.60
2009,02,03,10,40,4.60
2009,02,03,10,41,4.60
2009,02,03,10,42,4.70
2009,02,03,10,43,4.70
2009,02,03,10,44,4.70
2009,02,03,10,45,4.70
2009,02,03,10,46,4.70
2009,02,03,10,47,4.70
2009,02,03,10,48,4.70
2009,02,03,10,49,4.80
2009,02,03,10,50,4.70
2009,02,03,10,51,4.80
2009,02,03,10,52,4.80
2009,02,03,10,53,4.80
2009,02,03,10,54,4.80
2009,02,03,10,55,4.80
2009,02,03,10,56,4.90
2009,02,03,10,57,4.90
2009,02,03,10,58,4.90
2009,02,03,10,59,4.90
2009,02,03,11,00,4.90
2009,02,03,11,01,4.90
2009,02,03,11,02,4.90
2009,02,03,11,03,4.90
2009,02,03,11,04,4.90
2009,02,03,11,05,5.00
2009,02,03,11,06,5.00
2009,02,03,11,07,5.00
2009,02,03,11,08,5.10
2009,02,03,11,09,5.10
2009,02,03,11,10,5.10
2009,02,03,11,11,5.20
2009,02,03,11,12,5.20
2009,02,03,11,13,5.30
2009,02,03,11,14,5.30
2009,02,03,11,15,5.30
2009,02,03,11,16,5.30
2009,02,03,11,17,5.40
2009,02,03,11,18,5.40
2009,02,03,11,19,5.40
2009,02,03,11,20,5.50
2009,02,03,11,21,5.50
2009,02,03,11,22,5.50
2009,02,03,11,23,5.50
2009,02,03,11,24,5.60
2009,02,03,11,25,5.60
2009,02,03,11,26,5.60
2009,02,03,11,27,5.60
2009,02,03,11,28,5.70
2009,02,03,11,29,5.70
2009,02,03,11,30,5.70
2009,02,03,11,31,5.70
2009,02,03,11,32,5.70
2009,02,03,11,33,5.80
2009,02,03,11,34,5.80
2009,02,03,11,35,5.80
2009,02,03,11,36,5.80
2009,02,03,11,37,5.90
2009,02,03,11,38,5.90
2009,02,03,11,39,5.90
2009,02,03,11,40,5.90
2009,02,03,11,41,6.00
2009,02,03,11,42,6.00
2009,02,03,11,43,6.00
2009,02,03,11,44,6.00
2009,02,03,11,45,6.00
2009,02,03,11,46,6.00
2009,02,03,11,47,6.10
2009,02,03,11,48,6.10
2009,02,03,11,49,6.10
2009,02,03,11,50,6.10
2009,02,03,11,51,6.20
2009,02,03,11,52,6.20
2009,02,03,11,53,6.20
2009,02,03,11,54,6.20
2009,02,03,11,55,6.20
2009,02,03,11,56,6.30
2009,02,03,11,57,6.30
2009,02,03,11,58,6.30
2009,02,03,11,59,6.40
2009,02,03,12,00,6.40
2009,02,03,12,01,6.40
2009,02,03,12,02,6.50
2009,02,03,12,03,6.60
2009,02,03,12,04,6.60
2009,02,03,12,05,6.60
2009,02,03,12,06,6.60
2009,02,03,12,07,6.60
2009,02,03,12,08,6.60
2009,02,03,12,09,6.60
2009,02,03,12,10,6.70
2009,02,03,12,11,6.70
2009,02,03,12,12,6.70
2009,02,03,12,13,6.70
2009,02,03,12,14,6.70
2009,02,03,12,15,6.70
2009,02,03,12,16,6.70
2009,02,03,12,17,6.70
2009,02,03,12,18,6.70
2009,02,03,12,19,6.80
2009,02,03,12,20,6.80
2009,02,03,12,21,6.80
2009,02,03,12,22,6.80
2009,02,03,12,23,6.90
2009,02,03,12,24,6.90
2009,02,03,12,25,7.00
2009,02,03,12,26,7.00
2009,02,03,12,27,7.10
2009,02,03,12,28,7.10
2009,02,03,12,29,7.20
2009,02,03,12,30,7.30
2009,02,03,12,31,7.30
2009,02,03,12,32,7.30
2009,02,03,12,33,7.20
2009,02,03,12,34,7.20
2009,02,03,12,35,7.20
2009,02,03,12,36,7.30
2009,02,03,12,37,7.30
2009,02,03,12,38,7.30
2009,02,03,12,39,7.30
2009,02,03,12,40,7.30
2009,02,03,12,41,7.30
2009,02,03,12,42,7.30
2009,02,03,12,43,7.30
2009,02,03,12,44,7.30
2009,02,03,12,45,7.30
2009,02,03,12,46,7.30
2009,02,03,12,47,7.30
2009,02,03,12,48,7.30
2009,02,03,12,49,7.30
2009,02,03,12,50,7.30
2009,02,03,12,51,7.30
2009,02,03,12,52,7.40
2009,02,03,12,53,7.40
2009,02,03,12,54,7.40
2009,02,03,12,55,7.40
2009,02,03,12,56,7.40
2009,02,03,12,57,7.50
2009,02,03,12,58,7.50
2009,02,03,12,59,7.60
2009,02,03,13,00,7.60
2009,02,03,13,01,7.60
2009,02,03,13,02,7.70
2009,02,03,13,03,7.70
2009,02,03,13,04,7.70
2009,02,03,13,05,7.70
2009,02,03,13,06,7.70
2009,02,03,13,07,7.70
2009,02,03,13,08,7.70
2009,02,03,13,09,7.80
2009,02,03,13,10,7.80
2009,02,03,13,11,7.70
2009,02,03,13,12,7.80
2009,02,03,13,13,7.80
2009,02,03,13,14,7.80
2009,02,03,13,15,7.80
2009,02,03,13,16,7.80
2009,02,03,13,17,7.80
2009,02,03,13,18,7.90
2009,02,03,13,19,7.90
2009,02,03,13,20,7.90
2009,02,03,13,21,7.90
2009,02,03,13,22,8.00
2009,02,03,13,23,8.00
2009,02,03,13,24,8.10
2009,02,03,13,25,8.10
2009,02,03,13,26,8.10
2009,02,03,13,27,8.10
2009,02,03,13,28,8.10
2009,02,03,13,29,8.10
2009,02,03,13,30,8.20
2009,02,03,13,31,8.20
2009,02,03,13,32,8.20
2009,02,03,13,33,8.20
2009,02,03,13,34,8.20
2009,02,03,13,35,8.20
2009,02,03,13,36,8.20
2009,02,03,13,37,8.20
2009,02,03,13,38,8.10
2009,02,03,13,39,8.10
2009,02,03,13,40,8.10
2009,02,03,13,41,8.10
2009,02,03,13,42,8.10
2009,02,03,13,43,8.20
2009,02,03,13,44,8.20
2009,02,03,13,45,8.20
2009,02,03,13,46,8.20
2009,02,03,13,47,8.20
2009,02,03,13,48,8.20
2009,02,03,13,49,8.20
2009,02,03,13,50,8.20
2009,02,03,13,51,8.30
2009,02,03,13,52,8.30
2009,02,03,13,53,8.30
2009,02,03,13,54,8.30
2009,02,03,13,55,8.30
2009,02,03,13,56,8.30
2009,02,03,13,57,8.30
2009,02,03,13,58,8.30
2009,02,03,13,59,8.30
2009,02,03,14,00,8.30
2009,02,03,14,01,8.30
2009,02,03,14,02,8.30
2009,02,03,14,03,8.30
2009,02,03,14,04,8.30
2009,02,03,14,05,8.30
2009,02,03,14,06,8.30
2009,02,03,14,07,8.20
2009,02,03,14,08,8.20
2009,02,03,14,09,8.20
2009,02,03,14,10,8.10
2009,02,03,14,11,8.10
2009,02,03,14,12,8.10
2009,02,03,14,13,8.10
2009,02,03,14,14,8.10
2009,02,03,14,15,8.10
2009,02,03,14,16,8.00
2009,02,03,14,17,8.00
2009,02,03,14,18,8.00
2009,02,03,14,19,8.00
2009,02,03,14,20,7.90
2009,02,03,14,21,7.90
2009,02,03,14,22,7.90
2009,02,03,14,23,7.90
2009,02,03,14,24,7.90
2009,02,03,14,25,7.90
2009,02,03,14,26,7.90
2009,02,03,14,27,7.80
2009,02,03,14,28,7.80
2009,02,03,14,29,7.80
2009,02,03,14,30,7.70
2009,02,03,14,31,7.80
2009,02,03,14,32,7.80
2009,02,03,14,33,7.80
2009,02,03,14,34,7.80
2009,02,03,14,35,7.70
2009,02,03,14,36,7.70
2009,02,03,14,37,7.80
2009,02,03,14,38,7.80
2009,02,03,14,39,7.80
2009,02,03,14,40,7.70
2009,02,03,14,41,7.70
2009,02,03,14,42,7.70
2009,02,03,14,43,7.70
2009,02,03,14,44,7.70
2009,02,03,14,45,7.60
2009,02,03,14,46,7.60
2009,02,03,14,47,7.60
2009,02,03,14,48,7.60
2009,02,03,14,49,7.60
2009,02,03,14,50,7.60
2009,02,03,14,51,7.60
2009,02,03,14,52,7.60
2009,02,03,14,53,7.50
2009,02,03,14,54,7.60
2009,02,03,14,55,7.50
2009,02,03,14,56,7.50
2009,02,03,14,57,7.50
2009,02,03,14,58,7.50
2009,02,03,14,59,7.40
2009,02,03,15,00,7.40
2009,02,03,15,01,7.40
2009,02,03,15,02,7.40
2009,02,03,15,03,7.30
2009,02,03,15,04,7.30
2009,02,03,15,05,7.30
2009,02,03,15,06,7.30
2009,02,03,15,07,7.30
2009,02,03,15,08,7.30
2009,02,03,15,09,7.30
2009,02,03,15,10,7.30
2009,02,03,15,11,7.30
2009,02,03,15,12,7.30
2009,02,03,15,13,7.30
2009,02,03,15,14,7.30
2009,02,03,15,15,7.30
2009,02,03,15,16,7.20
2009,02,03,15,17,7.20
2009,02,03,15,18,7.20
2009,02,03,15,19,7.20
2009,02,03,15,20,7.10
2009,02,03,15,21,7.10
2009,02,03,15,22,7.10
2009,02,03,15,23,7.10
2009,02,03,15,24,7.00
2009,02,03,15,25,7.00
2009,02,03,15,26,7.00
2009,02,03,15,27,7.00
2009,02,03,15,28,7.00
2009,02,03,15,29,7.00
2009,02,03,15,30,7.00
2009,02,03,15,31,7.00
2009,02,03,15,32,7.00
2009,02,03,15,33,6.90
2009,02,03,15,34,6.90
2009,02,03,15,35,6.90
2009,02,03,15,36,6.90
2009,02,03,15,37,6.90
2009,02,03,15,38,6.90
2009,02,03,15,39,6.90
2009,02,03,15,40,6.90
2009,02,03,15,41,6.90
2009,02,03,15,42,6.90
2009,02,03,15,43,6.90
2009,02,03,15,44,6.90
2009,02,03,15,45,6.90
2009,02,03,15,46,6.90
2009,02,03,15,47,6.90
2009,02,03,15,48,6.90
2009,02,03,15,49,6.90
2009,02,03,15,50,6.90
2009,02,03,15,51,6.90
2009,02,03,15,52,6.80
2009,02,03,15,53,6.80
2009,02,03,15,54,6.80
2009,02,03,15,55,6.80
2009,02,03,15,56,6.80
2009,02,03,15,57,6.80
2009,02,03,15,58,6.80
2009,02,03,15,59,6.80
2009,02,03,16,00,6.80
2009,02,03,16,01,6.80
2009,02,03,16,02,6.80
2009,02,03,16,03,6.70
2009,02,03,16,04,6.70
2009,02,03,16,05,6.70
2009,02,03,16,06,6.70
2009,02,03,16,07,6.70
2009,02,03,16,08,6.70
2009,02,03,16,09,6.70
2009,02,03,16,10,6.60
2009,02,03,16,11,6.60
2009,02,03,16,12,6.60
2009,02,03,16,13,6.60
2009,02,03,16,14,6.60
2009,02,03,16,15,6.60
2009,02,03,16,16,6.60
2009,02,03,16,17,6.60
2009,02,03,16,18,6.60
2009,02,03,16,19,6.50
2009,02,03,16,20,6.40
2009,02,03,16,21,6.40
2009,02,03,16,22,6.40
2009,02,03,16,23,6.40
2009,02,03,16,24,6.40
2009,02,03,16,25,6.30
2009,02,03,16,26,6.30
2009,02,03,16,27,6.30
2009,02,03,16,28,6.20
2009,02,03,16,29,6.20
2009,02,03,16,30,6.20
2009,02,03,16,31,6.20
2009,02,03,16,32,6.20
2009,02,03,16,33,6.10
2009,02,03,16,34,6.10
2009,02,03,16,35,6.10
2009,02,03,16,36,6.00
2009,02,03,16,37,6.00
2009,02,03,16,38,6.00
2009,02,03,16,39,5.90
2009,02,03,16,40,5.90
2009,02,03,16,41,5.90
2009,02,03,16,42,5.80
2009,02,03,16,43,5.80
2009,02,03,16,44,5.70
2009,02,03,16,45,5.70
2009,02,03,16,46,5.70
2009,02,03,16,47,5.70
2009,02,03,16,48,5.60
2009,02,03,16,49,5.60
2009,02,03,16,50,5.50
2009,02,03,16,51,5.50
2009,02,03,16,52,5.50
2009,02,03,16,53,5.40
2009,02,03,16,54,5.40
2009,02,03,16,55,5.30
2009,02,03,16,56,5.30
2009,02,03,16,57,5.30
2009,02,03,16,58,5.30
2009,02,03,16,59,5.20
2009,02,03,17,00,5.20
2009,02,03,17,01,5.20
2009,02,03,17,02,5.10
2009,02,03,17,03,5.10
2009,02,03,17,04,5.10
2009,02,03,17,05,5.10
2009,02,03,17,06,4.90
2009,02,03,17,07,4.90
2009,02,03,17,08,4.90
2009,02,03,17,09,4.90
2009,02,03,17,10,4.80
2009,02,03,17,11,4.80
2009,02,03,17,12,4.80
2009,02,03,17,13,4.70
2009,02,03,17,14,4.70
2009,02,03,17,15,4.60
2009,02,03,17,16,4.60
2009,02,03,17,17,4.60
2009,02,03,17,18,4.60
2009,02,03,17,19,4.50
2009,02,03,17,20,4.50
2009,02,03,17,21,4.40
2009,02,03,17,22,4.40
2009,02,03,17,23,4.30
2009,02,03,17,24,4.30
2009,02,03,17,25,4.20
2009,02,03,17,26,4.20
2009,02,03,17,27,4.20
2009,02,03,17,28,4.20
2009,02,03,17,29,4.10
2009,02,03,17,30,4.10
2009,02,03,17,31,4.10
2009,02,03,17,32,4.00
2009,02,03,17,33,4.00
2009,02,03,17,34,4.00
2009,02,03,17,35,3.90
2009,02,03,17,36,3.90
2009,02,03,17,37,3.80
2009,02,03,17,38,3.80
2009,02,03,17,39,3.80
2009,02,03,17,40,3.80
2009,02,03,17,41,3.70
2009,02,03,17,42,3.70
2009,02,03,17,43,3.60
2009,02,03,17,44,3.60
2009,02,03,17,45,3.50
2009,02,03,17,46,3.50
2009,02,03,17,47,3.50
2009,02,03,17,48,3.40
2009,02,03,17,49,3.40
2009,02,03,17,50,3.30
2009,02,03,17,51,3.30
2009,02,03,17,52,3.30
2009,02,03,17,53,3.30
2009,02,03,17,54,3.20
2009,02,03,17,55,3.20
2009,02,03,17,56,3.20
2009,02,03,17,57,3.10
2009,02,03,17,58,3.10
2009,02,03,17,59,3.10
2009,02,03,18,00,3.10
2009,02,03,18,01,3.10
2009,02,03,18,02,2.90
2009,02,03,18,03,2.90
2009,02,03,18,04,2.90
2009,02,03,18,05,2.90
2009,02,03,18,06,2.90